User: anonymous   Login
Location: Caltech
(34.1382°N, 118.1253°W)
Time: 17:21:13
(UTC-07:00)
Language:

Meteor 1-11 Rocket - Orbit

View from above orbital plane
View from above orbital plane
View from above satellite
View from above satellite

Ground track
Ground track

The orbit data is extracted from the following two-line orbital elements,

1 05918U 72022B   15244.13830681 -.00000093  00000-0 -63736-4 0  9995
2 05918  81.2342 239.5246 0058899   8.8882 351.3314 14.05776965225963
Epoch (UTC): 01 September 2015 03:19:09
Eccentricity: 0.0058899
inclination: 81.2342°
perigee height: 831 km
apogee height: 916 km
right ascension of ascending node: 239.5246°
argument of perigee: 8.8882°
revolutions per day: 14.05776965
mean anomaly at epoch: 351.3314°
orbit number at epoch: 22596

The dashed part of the orbit path shows where the satellite is in the earth's shadow,  

DLR